DW8266 Weather Reports


Display with metric or nautical units.
time (UTC)temp
F
wind
direction
speed
MPH
gust
MPH
rain 1hr
in
rain 24hr
in
rain mn
in
humidity
%
barometer
mb
20260903023059 87 103 1.0 6.0 0.00 0.00 0.00 82 1013.0
20260903021557 87 34 1.0 7.0 0.00 0.00 0.00 81 1013.0
20260903020059 87 171 1.0 6.0 0.00 0.00 0.00 78 1012.7
20260903014609 88 37 2.0 7.0 0.00 0.00 0.00 77 1012.5
20260903013056 88 184 1.0 8.0 0.00 0.00 0.00 75 1012.3
20260903011557 89 166 4.0 9.0 0.00 0.00 0.00 74 1012.3
20260903010057 89 183 5.0 8.0 0.00 0.00 0.00 72 1012.0
20260903004556 90 178 3.0 11.0 0.00 0.00 0.00 70 1011.7
20260903003056 90 176 6.0 11.0 0.00 0.00 0.00 69 1011.9
20260903001557 91 190 2.0 9.0 0.00 0.00 0.00 67 1011.4
20260903000002 92 182 4.0 10.0 0.00 0.00 0.00 68 1011.2
20260902234602 92 257 4.0 9.0 0.00 0.00 0.00 66 1011.2
20260902233058 93 176 2.0 10.0 0.00 0.00 0.00 64 1011.2
20260902231600 94 183 4.0 10.0 0.00 0.00 0.00 65 1011.0
20260902230110 94 175 2.0 10.0 0.00 0.00 0.00 65 1010.9
20260902230001 94 151 2.0 10.0 0.00 0.00 0.00 65 1010.9
20260902224559 95 149 2.0 9.0 0.00 0.00 0.00 65 1010.9
20260902223113 96 188 2.0 8.0 0.00 0.00 0.00 64 1010.9
20260902221559 96 175 2.0 7.0 0.00 0.00 0.00 63 1011.0
20260902220059 97 192 1.0 7.0 0.00 0.00 0.00 60 1010.9
20260902214558 97 152 3.0 8.0 0.00 0.00 0.00 61 1011.0
20260902213108 98 173 3.0 8.0 0.00 0.00 0.00 62 1011.2
20260902211605 97 202 5.0 9.0 0.00 0.00 0.00 60 1011.4
20260902210103 97 180 2.0 7.0 0.00 0.00 0.00 61 1011.4
20260902204559 97 196 3.0 8.0 0.00 0.00 0.00 60 1011.6
20260902203058 97 209 4.0 9.0 0.00 0.00 0.00 59 1011.8
20260902201558 97 177 3.0 10.0 0.00 0.00 0.00 60 1011.8
20260902200058 97 199 3.0 7.0 0.00 0.00 0.00 62 1012.2
20260902194559 96 211 6.0 9.0 0.00 0.00 0.00 62 1012.5
20260902193104 97 182 4.0 8.0 0.00 0.00 0.00 63 1012.7
20260902191602 96 248 3.0 14.0 0.00 0.00 0.00 63 1013.0
20260902190106 96 205 4.0 9.0 0.00 0.00 0.00 62 1013.1
20260902184619 95 199 6.0 10.0 0.00 0.00 0.00 66 1013.5
20260902183114 95 219 4.0 10.0 0.00 0.00 0.00 68 1013.7
20260902181557 94 192 4.0 9.0 0.00 0.00 0.00 69 1013.9
20260902180057 93 250 3.0 10.0 0.00 0.00 0.00 71 1014.3
20260902174558 93 246 5.0 10.0 0.00 0.00 0.00 71 1014.6
20260902173057 92 234 8.0 15.0 0.00 0.00 0.00 73 1014.8
20260902171602 90 229 5.0 10.0 0.00 0.00 0.00 77 1014.9
20260902170056 89 248 6.0 12.0 0.00 0.00 0.00 78 1015.1
20260902164558 88 205 6.0 13.0 0.00 0.00 0.00 80 1015.4
20260902163101 88 232 5.0 12.0 0.00 0.00 0.00 82 1015.6
20260902161559 87 257 6.0 13.0 0.00 0.00 0.00 84 1015.5
20260902160100 87 234 9.0 11.0 0.00 0.00 0.00 84 1015.6
20260902154558 86 234 5.0 10.0 0.00 0.00 0.00 86 1015.6
20260902153105 85 227 6.0 13.0 0.00 0.00 0.00 88 1015.5
20260902151606 84 223 7.0 12.0 0.00 0.00 0.00 89 1015.4
20260902150058 83 226 4.0 10.0 0.00 0.00 0.00 90 1015.4
20260902144600 83 245 5.0 10.0 0.00 0.00 0.00 91 1015.4
20260902143059 82 213 5.0 9.0 0.00 0.00 0.00 91 1015.4
20260902141558 82 241 4.0 9.0 0.00 0.00 0.00 91 1015.4
20260902140059 82 223 4.0 7.0 0.00 0.00 0.00 92 1015.5
20260902134609 81 225 3.0 6.0 0.00 0.00 0.00 92 1015.3
20260902133108 81 219 3.0 6.0 0.00 0.00 0.00 92 1015.3
20260902131559 81 234 2.0 4.0 0.00 0.00 0.00 92 1015.2
20260902130059 81 215 1.0 4.0 0.00 0.00 0.00 92 1014.9
20260902124602 81 227 3.0 7.0 0.00 0.00 0.00 93 1014.6
20260902123059 80 227 3.0 7.0 0.00 0.00 0.00 92 1014.2
20260902121603 80 204 2.0 6.0 0.00 0.00 0.00 92 1014.0
20260902120100 80 232 2.0 4.0 0.00 0.00 0.00 92 1014.1
20260902114606 81 232 2.0 4.0 0.00 0.00 0.00 92 1014.1
20260902113001 80 233 1.0 3.0 0.00 0.00 0.00 92 1014.2
20260902111505 80 233 0.0 3.0 0.00 0.00 0.00 92 1014.2
20260902110059 81 233 1.0 4.0 0.00 0.00 0.00 92 1014.0
20260902104559 81 231 2.0 4.0 0.00 0.00 0.00 92 1014.0
20260902103104 81 231 3.0 7.0 0.00 0.00 0.00 91 1013.9
20260902101558 81 226 3.0 5.0 0.00 0.00 0.00 91 1013.7
20260902094559 81 229 2.0 4.0 0.00 0.00 0.00 91 1013.8
20260902093101 81 224 2.0 5.0 0.00 0.00 0.00 90 1013.9
20260902091609 81 221 3.0 6.0 0.00 0.00 0.00 90 1013.9
20260902090109 81 232 2.0 6.0 0.00 0.00 0.00 90 1013.6
20260902090001 81 229 2.0 6.0 0.00 0.00 0.00 90 1013.6
20260902084601 81 243 3.0 6.0 0.00 0.00 0.00 90 1013.7
20260902083058 81 247 3.0 7.0 0.00 0.00 0.00 89 1013.9
20260902081558 82 234 3.0 8.0 0.00 0.00 0.00 89 1013.7
20260902080000 82 225 3.0 5.0 0.00 0.00 0.00 89 1013.9
20260902074609 82 217 2.0 5.0 0.00 0.00 0.00 89 1013.9
20260902073110 82 217 2.0 7.0 0.00 0.00 0.00 88 1014.0
20260902071623 82 233 2.0 5.0 0.00 0.00 0.00 88 1013.9
20260902070058 82 240 4.0 7.0 0.00 0.00 0.00 88 1014.0
20260902064600 83 227 2.0 5.0 0.00 0.00 0.00 87 1013.9
20260902063059 83 221 2.0 5.0 0.00 0.00 0.00 87 1013.9
20260902061610 83 199 2.0 4.0 0.00 0.00 0.00 86 1013.9
20260902060100 83 198 1.0 3.0 0.00 0.00 0.00 86 1013.8
20260902060002 83 198 1.0 3.0 0.00 0.00 0.00 86 1013.8
20260902054558 83 198 1.0 2.0 0.00 0.00 0.00 86 1014.1
20260902053058 84 198 0.0 3.0 0.00 0.00 0.00 86 1014.0
20260902051558 84 198 1.0 2.0 0.00 0.00 0.00 85 1014.1
20260902050109 84 198 0.0 0.0 0.00 0.00 0.00 85 1014.0
20260902044600 84 198 0.0 2.0 0.00 0.00 0.00 85 1014.1
20260902043101 84 198 0.0 2.0 0.00 0.00 0.00 86 1013.9
20260902041602 84 198 0.0 0.0 0.00 0.00 0.00 84 1014.1
20260902040100 84 198 0.0 0.0 0.00 0.00 0.00 84 1014.2
20260902034600 84 198 0.0 0.0 0.00 0.00 0.00 83 1014.1
20260902033103 84 198 0.0 0.0 0.00 0.00 0.00 83 1014.3
20260902031559 84 198 0.0 1.0 0.00 0.00 0.00 83 1014.2
20260902030100 84 198 1.0 2.0 0.00 0.00 0.00 83 1013.9
20260902024603 85 121 0.0 3.0 0.00 0.00 0.00 82 1013.6